Weather History for Minot, ND

Change the Weather History Date:

Monday, January 28, 2013

  Actual Average Record
Temperature  
Mean Temperature 16 °F 13 °F  
Max Temperature 29 °F 22 °F 59 °F (1906)
Min Temperature 2 °F 4 °F -40 °F (1915)
Degree Days  
Heating Degree Days 49 52  
Month to date heating degree days 1447 1479  
Since 1 July heating degree days 5192 5074  
Moisture  
Dew Point 14 °F    
Average Humidity 85    
Maximum Humidity 96    
Minimum Humidity 74    
Precipitation  
Precipitation 0.06 in 0.02 in 0.46 in (1968)
Month to date precipitation 0.11 0.47  
Year to date precipitation 0.11 0.47  
Sea Level Pressure  
Sea Level Pressure 29.79 in    
Wind  
Wind Speed 4 mph (West)    
Max Wind Speed 12 mph    
Max Gust Speed 13 mph    
Visibility 5 miles    
Events Fog , Snow    
T = Trace of Precipitation, MM = Missing Value Source: NWS Daily Summary

Daily Weather History Graph

Daily Weather History Graph

Search for Another Location

Airport:

Trip Planner

Search our weather history database for the weather conditions in past years. The results will help you decide how hot, cold, wet, or windy it might be!

Date:

Astronomy

Jan. 28, 2013 Rise Set
Actual Time 8:18 AM CST 5:38 PM CST
Civil Twilight 7:44 AM CST 6:12 PM CST
Nautical Twilight 7:06 AM CST 6:50 PM CST
Astronomical Twilight 6:29 AM CST 7:27 PM CST
Moon 7:49 PM CST (1/28) 8:33 AM CST (1/28)
Length of Visible Light 10h 28m
Length of Day
9h 20m
Full, 98% of the Moon is Illuminated
Jan 28
Full
Feb 3
Last Quarter
Feb 10
New
Feb 17
First Quarter
Feb 25
Full

Hourly Weather History & Observations

Time (CST) Temp. Windchill Dew Point Humidity Pressure Visibility Wind Dir Wind Speed Gust Speed Precip Events Conditions
12:09 AM 15.8 °F 10.2 °F 12.2 °F 86% 29.75 in 1.8 mi NW 3.5 mph - 0.00 in Snow Light Snow
12:17 AM 15.8 °F 10.2 °F 12.2 °F 86% 29.76 in 2.0 mi SW 3.5 mph - 0.00 in Snow Light Snow
12:20 AM 15.8 °F - 12.2 °F 86% 29.75 in 3.0 mi Calm Calm - 0.00 in Snow Light Snow
12:26 AM 15.8 °F - 12.2 °F 86% 29.76 in 2.5 mi Calm Calm - 0.01 in Snow Light Snow
12:33 AM 15.8 °F 10.2 °F 12.2 °F 86% 29.75 in 0.8 mi NW 3.5 mph - 0.01 in Snow Light Snow
12:42 AM 15.8 °F - 12.2 °F 86% 29.75 in 1.5 mi Calm Calm - 0.01 in Snow Light Snow
12:50 AM 17.6 °F - 12.2 °F 79% 29.74 in 2.5 mi Calm Calm - 0.01 in Snow Light Snow
12:54 AM 17.1 °F - 12.9 °F 84% 29.85 in 2.0 mi Calm Calm - 0.02 in Snow Light Snow
1:02 AM 17.6 °F - 14.0 °F 86% 29.74 in 1.2 mi Calm Calm - 0.00 in Snow Light Snow
1:52 AM 17.6 °F - 14.0 °F 86% 29.71 in 0.8 mi Calm Calm - 0.02 in Snow Light Snow
1:54 AM 17.1 °F - 14.0 °F 88% 29.81 in 0.5 mi Calm Calm - 0.03 in Fog , Snow Snow
2:01 AM 17.6 °F - 14.0 °F 86% 29.72 in 0.5 mi Calm Calm - 0.01 in Fog , Snow Snow
2:16 AM 17.6 °F - 14.0 °F 86% 29.71 in 1.8 mi Calm Calm - 0.01 in Snow Light Snow
2:20 AM 17.6 °F - 14.0 °F 86% 29.72 in 2.5 mi Calm Calm - 0.01 in Snow Light Snow
2:27 AM 17.6 °F - 14.0 °F 86% 29.72 in 6.0 mi Calm Calm - 0.01 in   Overcast
2:54 AM 18.0 °F 12.7 °F 15.1 °F 88% 29.84 in 7.0 mi WSW 3.5 mph - 0.01 in   Overcast
3:10 AM 17.6 °F 8.2 °F 15.8 °F 93% 29.74 in 6.0 mi WNW 6.9 mph - N/A   Overcast
3:45 AM 19.4 °F 11.5 °F 15.8 °F 86% 29.75 in 3.0 mi SW 5.8 mph - 0.00 in Snow Light Snow
3:54 AM 19.0 °F 12.3 °F 16.0 °F 88% 29.85 in 3.0 mi SW 4.6 mph - 0.00 in Snow Light Snow
4:07 AM 19.4 °F 12.8 °F 15.8 °F 86% 29.75 in 2.0 mi WSW 4.6 mph - 0.00 in Snow Light Snow
4:29 AM 19.4 °F - 17.6 °F 93% 29.74 in 3.0 mi Calm Calm - 0.00 in Snow Light Snow
4:43 AM 19.4 °F - 17.6 °F 93% 29.73 in 6.0 mi Calm Calm - 0.00 in   Overcast
4:54 AM 21.0 °F 16.2 °F 18.0 °F 88% 29.83 in 6.0 mi WSW 3.5 mph - 0.00 in   Overcast
5:54 AM 21.0 °F - 18.0 °F 88% 29.83 in 6.0 mi Calm Calm - N/A   Overcast
6:54 AM 21.9 °F - 19.0 °F 89% 29.83 in 6.0 mi Calm Calm - N/A   Overcast
7:54 AM 27.0 °F 19.5 °F 24.1 °F 89% 29.82 in 8.0 mi West 6.9 mph - N/A   Overcast
8:28 AM 24.8 °F 17.9 °F 21.2 °F 86% 29.75 in 5.0 mi SW 5.8 mph - N/A   Overcast
8:54 AM 25.0 °F 16.3 °F 23.0 °F 92% 29.86 in 5.0 mi SSW 8.1 mph - N/A   Overcast
9:54 AM 23.0 °F 17.0 °F 21.9 °F 96% 29.85 in 5.0 mi SW 4.6 mph - N/A   Mostly Cloudy
10:54 AM 26.1 °F 16.8 °F 23.0 °F 88% 29.85 in 5.0 mi West 9.2 mph - N/A   Clear
11:54 AM 28.0 °F 20.8 °F 23.0 °F 81% 29.85 in 9.0 mi WSW 6.9 mph - N/A   Mostly Cloudy
12:54 PM 28.0 °F 20.8 °F 21.9 °F 78% 29.82 in 10.0 mi West 6.9 mph - N/A   Mostly Cloudy
1:54 PM 28.9 °F 22.8 °F 21.0 °F 72% 29.82 in 10.0 mi West 5.8 mph - N/A   Partly Cloudy
2:54 PM 28.9 °F 21.9 °F 21.0 °F 72% 29.83 in 10.0 mi SW 6.9 mph - N/A   Partly Cloudy
3:54 PM 24.1 °F 17.0 °F 18.0 °F 77% 29.83 in 10.0 mi North 5.8 mph - N/A   Clear
4:54 PM 19.0 °F 11.1 °F 14.0 °F 81% 29.83 in 10.0 mi NNW 5.8 mph - N/A   Clear
5:54 PM 14.0 °F 5.1 °F 10.9 °F 88% 29.83 in 10.0 mi NNW 5.8 mph - N/A   Clear
6:54 PM 10.0 °F 0.4 °F 7.0 °F 87% 29.84 in 9.0 mi NNW 5.8 mph - N/A   Clear
7:54 PM 15.1 °F 9.4 °F 10.9 °F 84% 29.85 in 10.0 mi West 3.5 mph - N/A   Clear
8:54 PM 14.0 °F - 10.9 °F 88% 29.85 in 10.0 mi Calm Calm - N/A   Clear
9:54 PM 8.1 °F - 6.1 °F 92% 29.84 in 6.0 mi Calm Calm - N/A   Clear
10:54 PM 1.9 °F -10.6 °F -0.9 °F 88% 29.83 in 7.0 mi NNW 6.9 mph - N/A   Partly Cloudy
11:08 PM 5.0 °F -8.1 °F 3.2 °F 92% 29.73 in 2.5 mi WNW 8.1 mph - N/A   Mostly Cloudy
11:19 PM 5.0 °F -10.8 °F 1.4 °F 85% 29.73 in 1.5 mi WNW 11.5 mph - 0.00 in Snow Light Snow
11:32 PM 5.0 °F -6.9 °F 3.2 °F 92% 29.72 in 3.0 mi WNW 6.9 mph - 0.00 in   Overcast
11:54 PM 3.0 °F -8.0 °F -0.0 °F 87% 29.82 in 5.0 mi WNW 5.8 mph - 0.00 in   Overcast
11:59 PM 3.2 °F -9.1 °F 1.4 °F 92% 29.72 in 1.5 mi WNW 6.9 mph - 0.00 in Snow Light Snow